Location: Wiesbaden
(50.0830°N, 8.2500°E)
Time: 22:44:48
(UTC+01:00)

ISS - Pass Details

Date: 09 November 2019
Orbit: 412 x 421 km, 51.6° (Epoch: 15 November)

Event Time Altitude Azimuth Distance (km) Brightness Sun altitude
Exits shadow 04:13:52 12° 94° (E) 1,410 -0.3 -31.4°
Drops below altitude 10° 04:14:07 10° 95° (E) 1,506 -0.1 -31.4°
Sets 04:16:13 0° 97° (E) 2,368 1.1 -31.0°
